When you browse on this site, cookies collect data to enhance your experience and personalize the content and advertising you see.
Visit our Privacy Policy to learn more. By continuing to use the site, you agree to this use of cookies and data.
  • în România
  • Lista ţărilor
  • Pe 7 zile
  • Temperatura apei
  • Hartă satelitară
  • Meteo pe hartă
  • Widget-uri
  • user-avatar
    Intrare

    Meteo pe oră la Tonton

    Astăzi, 19 Iunie, Miercuri

    Timp Temperatura Precipitaţii Vânt Presiune Umiditate
    00:00 +14°C° 0 mm 1 m/s 755 mmHg 96%
    01:00 +14°C° 0.1 mm 1 m/s 754 mmHg 96%
    02:00 +14°C° 0.1 mm 1 m/s 754 mmHg 97%
    03:00 +14°C° 0.1 mm 1 m/s 754 mmHg 97%
    04:00 +14°C° 0 mm 1 m/s 754 mmHg 96%
    05:00 +14°C° 0 mm 1 m/s 754 mmHg 96%
    06:00 +14°C° 0 mm 1 m/s 754 mmHg 96%
    07:00 +15°C° 0 mm 1 m/s 754 mmHg 95%
    08:00 +16°C° 0 mm 2 m/s 754 mmHg 93%
    09:00 +16°C° 0 mm 2 m/s 754 mmHg 91%
    10:00 +17°C° 0.2 mm 3 m/s 755 mmHg 89%
    11:00 +17°C° 0.2 mm 3 m/s 755 mmHg 87%
    12:00 +18°C° 0.2 mm 4 m/s 755 mmHg 85%
    13:00 +18°C° 0.1 mm 4 m/s 755 mmHg 83%
    14:00 +17°C° 0.1 mm 5 m/s 755 mmHg 81%
    15:00 +17°C° 0.1 mm 5 m/s 755 mmHg 78%
    16:00 +17°C° 0 mm 5 m/s 755 mmHg 80%
    17:00 +16°C° 0 mm 6 m/s 755 mmHg 81%
    18:00 +16°C° 0 mm 6 m/s 755 mmHg 82%
    19:00 +14°C° 0 mm 5 m/s 755 mmHg 85%
    20:00 +12°C° 0 mm 5 m/s 756 mmHg 89%
    21:00 +10°C° 0 mm 4 m/s 756 mmHg 92%
    22:00 +10°C° 0 mm 4 m/s 756 mmHg 93%
    23:00 +8°C° 0 mm 4 m/s 756 mmHg 94%

    Mâine, 20 Iunie, Joi

    Timp Temperatura Precipitaţii Vânt Presiune Umiditate
    00:00 +8°C° 0 mm 4 m/s 757 mmHg 95%
    01:00 +8°C° 0 mm 4 m/s 757 mmHg 95%
    02:00 +8°C° 0 mm 4 m/s 757 mmHg 96%
    03:00 +8°C° 0 mm 4 m/s 757 mmHg 96%
    04:00 +10°C° 0 mm 4 m/s 757 mmHg 94%
    05:00 +11°C° 0 mm 4 m/s 757 mmHg 93%
    06:00 +10°C° 0 mm 5 m/s 757 mmHg 92%
    07:00 +12°C° 0.1 mm 5 m/s 757 mmHg 89%
    08:00 +13°C° 0.1 mm 5 m/s 758 mmHg 86%
    09:00 +14°C° 0.1 mm 5 m/s 758 mmHg 83%
    10:00 +15°C° 0.3 mm 5 m/s 758 mmHg 83%
    11:00 +15°C° 0.3 mm 5 m/s 758 mmHg 82%
    12:00 +15°C° 0.3 mm 5 m/s 759 mmHg 81%
    13:00 +15°C° 0.2 mm 5 m/s 759 mmHg 80%
    14:00 +16°C° 0.2 mm 5 m/s 759 mmHg 78%
    15:00 +16°C° 0.2 mm 5 m/s 759 mmHg 77%
    16:00 +15°C° 0.2 mm 5 m/s 759 mmHg 79%
    17:00 +15°C° 0.2 mm 5 m/s 759 mmHg 81%
    18:00 +14°C° 0.2 mm 4 m/s 759 mmHg 83%
    19:00 +13°C° 0 mm 4 m/s 760 mmHg 86%
    20:00 +11°C° 0 mm 4 m/s 760 mmHg 89%
    21:00 +9°C° 0 mm 3 m/s 760 mmHg 92%
    22:00 +9°C° 0 mm 3 m/s 760 mmHg 92%
    23:00 +8°C° 0 mm 3 m/s 761 mmHg 92%

    Poimâine, 21 Iunie, Vineri

    Timp Temperatura Precipitaţii Vânt Presiune Umiditate
    00:00 +7°C° 0 mm 3 m/s 761 mmHg 92%
    01:00 +7°C° 0 mm 3 m/s 761 mmHg 93%
    02:00 +7°C° 0 mm 3 m/s 761 mmHg 93%
    03:00 +7°C° 0 mm 3 m/s 762 mmHg 93%
    04:00 +8°C° 0 mm 3 m/s 762 mmHg 93%
    05:00 +9°C° 0 mm 3 m/s 762 mmHg 92%
    06:00 +10°C° 0 mm 2 m/s 762 mmHg 91%
    07:00 +11°C° 0 mm 3 m/s 763 mmHg 84%
    08:00 +13°C° 0 mm 3 m/s 763 mmHg 77%
    09:00 +14°C° 0 mm 3 m/s 763 mmHg 70%
    10:00 +16°C° 0 mm 3 m/s 764 mmHg 70%
    11:00 +16°C° 0 mm 3 m/s 764 mmHg 70%
    12:00 +16°C° 0 mm 3 m/s 764 mmHg 70%
    13:00 +17°C° 0 mm 3 m/s 764 mmHg 71%
    14:00 +17°C° 0 mm 3 m/s 764 mmHg 71%
    15:00 +17°C° 0 mm 3 m/s 764 mmHg 72%
    16:00 +17°C° 0.1 mm 3 m/s 764 mmHg 73%
    17:00 +16°C° 0.1 mm 3 m/s 764 mmHg 75%
    18:00 +16°C° 0.1 mm 3 m/s 764 mmHg 77%
    19:00 +14°C° 0 mm 2 m/s 764 mmHg 81%
    20:00 +12°C° 0 mm 2 m/s 764 mmHg 84%
    21:00 +11°C° 0 mm 1 m/s 765 mmHg 88%
    22:00 +10°C° 0 mm 1 m/s 765 mmHg 87%
    23:00 +10°C° 0 mm 1 m/s 765 mmHg 87%

    22 Iunie, Sâmbătă

    Timp Temperatura Precipitaţii Vânt Presiune Umiditate
    00:00 +8°C° 0 mm 0 m/s 765 mmHg 87%
    01:00 +8°C° 0 mm 0 m/s 765 mmHg 87%
    02:00 +8°C° 0 mm 0 m/s 764 mmHg 87%
    03:00 +8°C° 0 mm 0 m/s 764 mmHg 88%
    04:00 +9°C° 0 mm 0 m/s 764 mmHg 87%
    05:00 +11°C° 0 mm 1 m/s 764 mmHg 86%
    06:00 +12°C° 0 mm 1 m/s 764 mmHg 85%
    07:00 +13°C° 0 mm 1 m/s 764 mmHg 81%
    08:00 +15°C° 0 mm 2 m/s 764 mmHg 78%
    09:00 +16°C° 0 mm 2 m/s 764 mmHg 74%
    10:00 +17°C° 0 mm 2 m/s 764 mmHg 73%
    11:00 +18°C° 0 mm 3 m/s 764 mmHg 71%
    12:00 +19°C° 0 mm 3 m/s 764 mmHg 69%
    13:00 +18°C° 0 mm 3 m/s 763 mmHg 70%
    14:00 +18°C° 0 mm 3 m/s 763 mmHg 72%
    15:00 +18°C° 0 mm 3 m/s 763 mmHg 73%
    16:00 +18°C° 0 mm 3 m/s 762 mmHg 75%
    17:00 +18°C° 0 mm 3 m/s 762 mmHg 77%
    18:00 +17°C° 0 mm 3 m/s 762 mmHg 79%
    19:00 +16°C° 0 mm 3 m/s 762 mmHg 82%
    20:00 +13°C° 0 mm 3 m/s 762 mmHg 85%
    21:00 +12°C° 0 mm 2 m/s 762 mmHg 88%
    22:00 +12°C° 0 mm 2 m/s 762 mmHg 84%
    23:00 +12°C° 0 mm 2 m/s 762 mmHg 79%

    23 Iunie, Duminică

    Timp Temperatura Precipitaţii Vânt Presiune Umiditate
    00:00 +12°C° 0 mm 2 m/s 762 mmHg 74%
    01:00 +11°C° 0 mm 1 m/s 763 mmHg 87%
    02:00 +10°C° 0 mm 2 m/s 762 mmHg 89%
    03:00 +9°C° 0 mm 2 m/s 762 mmHg 90%
    04:00 +10°C° 0 mm 2 m/s 762 mmHg 90%
    05:00 +12°C° 0 mm 2 m/s 762 mmHg 90%
    06:00 +11°C° 0 mm 3 m/s 762 mmHg 90%
    07:00 +13°C° 0 mm 3 m/s 762 mmHg 87%
    08:00 +14°C° 0 mm 4 m/s 762 mmHg 84%
    09:00 +16°C° 0 mm 5 m/s 762 mmHg 80%
    10:00 +17°C° 0 mm 5 m/s 762 mmHg 79%
    11:00 +19°C° 0 mm 6 m/s 762 mmHg 77%
    12:00 +19°C° 0 mm 6 m/s 762 mmHg 76%
    13:00 +19°C° 0.2 mm 6 m/s 761 mmHg 79%
    14:00 +17°C° 0.2 mm 5 m/s 761 mmHg 83%
    15:00 +17°C° 0.2 mm 5 m/s 760 mmHg 87%
    16:00 +16°C° 0.3 mm 5 m/s 760 mmHg 89%
    17:00 +16°C° 0.3 mm 5 m/s 760 mmHg 90%
    18:00 +17°C° 0.3 mm 4 m/s 759 mmHg 91%
    19:00 +16°C° 0.1 mm 6 m/s 759 mmHg 91%
    20:00 +16°C° 0.1 mm 7 m/s 759 mmHg 90%
    21:00 +16°C° 0.1 mm 8 m/s 759 mmHg 89%
    22:00 +15°C° 0.7 mm 8 m/s 759 mmHg 89%
    23:00 +15°C° 0.7 mm 8 m/s 758 mmHg 89%

    24 Iunie, Luni

    Timp Temperatura Precipitaţii Vânt Presiune Umiditate
    00:00 +15°C° 0.7 mm 8 m/s 758 mmHg 89%
    01:00 +15°C° 1.4 mm 7 m/s 758 mmHg 91%
    02:00 +15°C° 1.4 mm 7 m/s 757 mmHg 93%
    03:00 +16°C° 1.4 mm 6 m/s 757 mmHg 95%
    04:00 +16°C° 0 mm 6 m/s 757 mmHg 95%
    05:00 +16°C° 0 mm 5 m/s 757 mmHg 95%
    06:00 +16°C° 0 mm 5 m/s 757 mmHg 95%
    07:00 +17°C° 0.1 mm 5 m/s 757 mmHg 94%
    08:00 +19°C° 0.1 mm 5 m/s 758 mmHg 94%
    09:00 +19°C° 0.1 mm 5 m/s 758 mmHg 93%
    10:00 +20°C° 0.1 mm 5 m/s 758 mmHg 91%
    11:00 +20°C° 0.1 mm 5 m/s 758 mmHg 90%
    12:00 +20°C° 0.1 mm 5 m/s 758 mmHg 88%
    13:00 +20°C° 0.1 mm 5 m/s 758 mmHg 88%
    14:00 +21°C° 0.1 mm 4 m/s 758 mmHg 88%
    15:00 +21°C° 0.1 mm 4 m/s 758 mmHg 88%
    16:00 +20°C° 0 mm 4 m/s 758 mmHg 89%
    17:00 +20°C° 0 mm 3 m/s 758 mmHg 91%
    18:00 +19°C° 0 mm 3 m/s 758 mmHg 92%
    19:00 +18°C° 0 mm 2 m/s 759 mmHg 94%
    20:00 +18°C° 0 mm 2 m/s 759 mmHg 95%
    21:00 +18°C° 0 mm 1 m/s 760 mmHg 96%
    22:00 +18°C° 0 mm 1 m/s 760 mmHg 96%
    23:00 +18°C° 0 mm 1 m/s 760 mmHg 96%
    Arată mai mult